Погода в Гулбарге

Индия     17°19′57″N   76°50′25″E
темп.,
°C
ветер,
м/с
пор.,
м/с
влажн.,
%
обл.,
%
осадки,
мм/ч
давл.,
гПа
погр.,
м
17 мая, вт
вт1723:30+34юв353471 0.6 1003243
02:30+33ю5839100 0.0 1002626
05:30+31ююз365096 0.5 1004534
08:30+33зсз4342100 0.1 10051035
11:30+37ссз132963 0.1 10032238
14:30+38в562797 0.0 10002886
17:30+30юз4448100 2.4 1002491
20:30+28ююв5863100 4.9 1004310
18 мая, ср
ср1823:30+28ю6658100 4.9 1003200
02:30+28з6855100 0.1 1004653
05:30+28зюз3456100 0.2 1005622
08:30+28зсз6859100 0.1 1007539
11:30+30зсз5651100 0.1 1006859
14:30+33сз5639100 0.0 10041686
17:30+32сз783995 0.0 10031047
20:30+30з2242100 0.1 1005126
19 мая, чт
чт1923:30+30зюз344390 0.1 1005171
02:30+29ююв2248100 0.0 1005202
05:30+26юв6771100 0.0 1007351
08:30+27зюз3464100 0.0 1008321
11:30+31зюз224599 0.0 1007967
14:30+35ю033278 0.0 10032216
17:30+34юв6434100 0.0 1002575
20:30+32ю6745100 0.0 1004427
20 мая, пт
пт2023:30+32юз91142100 0.0 1005998
02:30+29юз794999 0.3 1005566
05:30+28зюз685799 0.3 1006556
08:30+29з884872 0.0 1007852
11:30+35зсз772587 0.0 10051645
14:30+39зсз662065 0.0 10023239
17:30+39з6719100 0.0 10002298
20:30+38юз682256 0.0 1002639
21 мая, сб
сб2123:30+31з121538100 0.0 1004903
02:30+28з10134598 0.0 1004764
05:30+27з8105342 0.0 1005723
08:30+29з9104839 0.0 1007910
11:30+35зсз782815 0.0 10051534
14:30+39зсз772036 0.0 10012540
17:30+40з671833 0.0 10003398
20:30+36з13142798 0.0 10011941